Location: Hamayl? Da??
(36.7028°N, 30.1716°E)
Time: 16:15:08
(UTC+00:00)

USA 238 DEB - Pass Details

Date: 04 August 2024
Orbit: 915 x 1296 km, 63.4° (Epoch: 11 August)

Event Time Altitude Azimuth Distance (km) Brightness Sun altitude
Rises 21:18:45 0° 327° (NNW) 4,031 7.6 -35.3°
Reaches altitude 10° 21:21:24 10° 326° (NNW) 3,115 6.8 -35.4°
Enters shadow 21:27:58 70° 311° (NW) 1,313 4.1 -35.7°
